Time,TemperatureF,DewpointF,PressureIn,WindDirection,WindDirectionDegrees,WindSpeedMPH,WindSpeedGustMPH,Humidity,HourlyPrecipIn,Conditions,Clouds,dailyrainin,SoftwareType,DateUTC
2013-05-17 20:56:00,77.4,62.4,29.86,South,180,4.7,6.5,60,-99.99,,,0.00,wxRedirect v1.1,2013-05-18 01:56:00,
2013-05-17 21:02:00,77.4,62.4,29.86,SE,135,0.0,4.7,60,-99.99,,,0.00,wxRedirect v1.1,2013-05-18 02:02:00,
2013-05-17 21:07:00,77.2,62.2,29.86,South,180,10.1,10.1,60,-99.99,,,0.00,wxRedirect v1.1,2013-05-18 02:07:00,
2013-05-17 21:13:00,76.8,62.3,29.86,SSE,157,2.2,10.1,61,-99.99,,,0.00,wxRedirect v1.1,2013-05-18 02:13:00,
2013-05-17 21:18:00,76.8,61.9,29.86,South,180,0.0,10.1,60,-99.99,,,0.00,wxRedirect v1.1,2013-05-18 02:18:00,
2013-05-17 21:23:00,76.6,62.2,29.86,SE,135,2.7,4.9,61,-99.99,,,0.00,wxRedirect v1.1,2013-05-18 02:23:00,
2013-05-17 21:28:00,76.3,61.8,29.86,SSE,157,1.8,5.8,61,-99.99,,,0.00,wxRedirect v1.1,2013-05-18 02:28:00,
2013-05-17 21:34:00,76.1,61.7,29.86,SSE,157,3.4,5.8,61,-99.99,,,0.00,wxRedirect v1.1,2013-05-18 02:34:00,
2013-05-17 21:39:00,76.1,62.1,29.87,SSE,157,6.5,6.5,62,-99.99,,,0.00,wxRedirect v1.1,2013-05-18 02:39:00,
2013-05-17 21:44:00,75.9,62.0,29.87,SSE,157,2.7,6.5,62,-99.99,,,0.00,wxRedirect v1.1,2013-05-18 02:44:00,
2013-05-17 21:49:00,75.7,62.2,29.87,SE,135,2.5,6.5,63,-99.99,,,0.00,wxRedirect v1.1,2013-05-18 02:49:00,
2013-05-17 21:54:00,75.6,62.1,29.87,SSE,157,3.8,4.9,63,-99.99,,,0.00,wxRedirect v1.1,2013-05-18 02:54:00,
2013-05-17 21:59:00,75.4,61.9,29.87,SSE,157,5.1,5.1,63,-99.99,,,0.00,wxRedirect v1.1,2013-05-18 02:59:00,
2013-05-17 22:04:00,75.4,62.3,29.87,SSE,157,5.1,5.1,64,-99.99,,,0.00,wxRedirect v1.1,2013-05-18 03:04:00,
2013-05-17 22:10:00,75.0,62.0,29.87,South,180,7.2,7.2,64,-99.99,,,0.00,wxRedirect v1.1,2013-05-18 03:10:00,
2013-05-17 22:15:00,74.8,62.3,29.87,SSE,157,2.9,7.2,65,-99.99,,,0.00,wxRedirect v1.1,2013-05-18 03:15:00,
2013-05-17 22:21:00,74.8,62.3,29.87,SSE,157,0.0,7.2,65,-99.99,,,0.00,wxRedirect v1.1,2013-05-18 03:21:00,
2013-05-17 22:26:00,74.7,62.3,29.87,SSE,157,8.1,8.1,66,-99.99,,,0.00,wxRedirect v1.1,2013-05-18 03:26:00,
2013-05-17 22:31:00,74.5,62.3,29.87,SSE,157,1.8,8.1,66,-99.99,,,0.00,wxRedirect v1.1,2013-05-18 03:31:00,
2013-05-17 22:37:00,74.3,62.2,29.86,SSE,157,2.2,8.1,66,-99.99,,,0.00,wxRedirect v1.1,2013-05-18 03:37:00,
2013-05-17 22:42:00,74.1,62.0,29.86,SSE,157,2.2,2.7,66,-99.99,,,0.00,wxRedirect v1.1,2013-05-18 03:42:00,
2013-05-17 22:48:00,73.9,62.3,29.87,SSE,157,2.7,2.7,67,-99.99,,,0.00,wxRedirect v1.1,2013-05-18 03:48:00,
2013-05-17 22:53:00,73.9,62.3,29.88,SSE,157,6.9,6.9,67,-99.99,,,0.00,wxRedirect v1.1,2013-05-18 03:53:00,
2013-05-17 22:59:00,73.9,62.3,29.87,SSE,157,6.0,6.9,67,-99.99,,,0.00,wxRedirect v1.1,2013-05-18 03:59:00,
2013-05-17 23:01:00,73.8,62.1,29.87,SSE,157,7.6,7.6,67,-99.99,,,0.00,wxRedirect v1.1,2013-05-18 04:01:00,
2013-05-17 23:02:00,73.8,62.1,29.87,SSE,157,7.6,7.6,67,-99.99,,,0.00,wxRedirect v1.1,2013-05-18 04:02:00,
2013-05-17 23:03:00,73.8,62.1,29.87,SSE,157,3.8,7.6,67,0.00,,,0.00,wxRedirect v1.1,2013-05-18 04:03:00,
2013-05-17 23:05:00,73.8,62.1,29.86,SSE,157,11.4,11.4,67,0.00,,,0.00,wxRedirect v1.1,2013-05-18 04:05:00,
2013-05-17 23:09:00,73.6,62.4,29.86,SSE,157,4.7,11.4,68,-99.99,,,0.00,wxRedirect v1.1,2013-05-18 04:09:00,
2013-05-17 23:15:00,73.6,62.4,29.87,South,180,5.8,11.4,68,-99.99,,,0.00,wxRedirect v1.1,2013-05-18 04:15:00,
2013-05-17 23:20:00,73.6,62.4,29.87,SE,135,3.1,5.8,68,-99.99,,,0.00,wxRedirect v1.1,2013-05-18 04:20:00,
2013-05-17 23:25:00,73.4,62.7,29.87,SSE,157,8.1,8.1,69,-99.99,,,0.00,wxRedirect v1.1,2013-05-18 04:25:00,
2013-05-17 23:30:00,73.2,62.5,29.87,SSE,157,2.9,10.3,69,-99.99,,,0.00,wxRedirect v1.1,2013-05-18 04:30:00,
2013-05-17 23:35:00,73.2,62.5,29.86,SSE,157,4.9,10.3,69,-99.99,,,0.00,wxRedirect v1.1,2013-05-18 04:35:00,
2013-05-17 23:40:00,73.2,63.0,29.86,SE,135,2.2,10.3,70,-99.99,,,0.00,wxRedirect v1.1,2013-05-18 04:40:00,
2013-05-17 23:46:00,73.0,62.8,29.86,South,180,3.6,6.9,70,-99.99,,,0.00,wxRedirect v1.1,2013-05-18 04:46:00,
2013-05-17 23:51:00,73.0,62.8,29.86,North,-999,-999.0,-999.0,70,-99.99,,,0.00,wxRedirect v1.1,2013-05-18 04:51:00,
2013-05-17 23:56:00,72.9,62.6,29.87,SSE,157,0.9,3.6,70,-99.99,,,0.00,wxRedirect v1.1,2013-05-18 04:56:00,